Morgantown, WV

1:11 AM EDT on May 22, 2018 (GMT -0400)
Morgantown Municipal-Hart

Weather History for KMGW - December, 2013

Change the Weather History Date:

Tuesday, December 10, 2013

  Actual Average Record
Temperature  
Mean Temperature 29 °F 36 °F  
Max Temperature 32 °F 44 °F 75 °F (1971)
Min Temperature 26 °F 29 °F -4 °F (1876)
Degree Days  
Heating Degree Days 36 29  
Month to date heating degree days 248 275  
Since 1 July heating degree days 1365 1323  
Cooling Degree Days 0 0  
Month to date cooling degree days 0 0  
Year to date cooling degree days 906 814  
Moisture  
Dew Point 22 °F    
Average Humidity 67    
Maximum Humidity 78    
Minimum Humidity 55    
Precipitation  
Precipitation 0.04 in 0.10 in 1.44 in (1878)
Month to date precipitation 2.38 1.02  
Year to date precipitation 38.92 39.94  
Sea Level Pressure  
Sea Level Pressure 30.10 in    
Wind  
Wind Speed 5 mph (West)    
Max Wind Speed 16 mph    
Max Gust Speed 24 mph    
Visibility 6 miles    
Events Fog , Snow    
T = Trace of Precipitation, MM = Missing Value Source: NWS Daily Summary

Daily Weather History Graph

Daily Weather History Graph

Search for Another Location

Airport or City:

Astronomy

Dec. 10, 2013 Rise Set
Actual Time 7:29 AM EST 4:55 PM EST
Civil Twilight 6:59 AM EST 5:25 PM EST
Nautical Twilight 6:25 AM EST 5:59 PM EST
Astronomical Twilight 5:53 AM EST 6:32 PM EST
Moon 12:54 PM EST (12/10) 12:47 AM EST (12/10)
Length of Visible Light 10h 26m
Length of Day
9h 25m
First Quarter, 61% of the Moon is Illuminated
Dec 10
First Quarter
Dec 17
Full
Dec 25
Last Quarter
Jan 1
New
Jan 7
First Quarter

Hourly Weather History & Observations

Time (EST) Temp. Windchill Dew Point Humidity Pressure Visibility Wind Dir Wind Speed Gust Speed Precip Events Conditions
12:53 AM 32.0 °F 26.4 °F 24.1 °F 73% 30.11 in 10.0 mi West 5.8 mph - N/A   Overcast
1:53 AM 30.9 °F 26.2 °F 24.1 °F 76% 30.14 in 10.0 mi West 4.6 mph - N/A   Overcast
2:53 AM 30.9 °F 27.5 °F 24.1 °F 76% 30.14 in 10.0 mi West 3.5 mph - N/A   Overcast
3:20 AM 30.2 °F - 24.8 °F 80% 30.08 in 10.0 mi Calm Calm - N/A   Overcast
3:53 AM 30.9 °F - 24.1 °F 76% 30.08 in 10.0 mi Calm Calm - N/A   Overcast
4:10 AM 30.2 °F 25.4 °F 24.8 °F 80% 30.06 in 10.0 mi SW 4.6 mph - N/A   Overcast
4:53 AM 30.9 °F 26.2 °F 24.1 °F 76% 30.13 in 10.0 mi WNW 4.6 mph - N/A   Overcast
5:45 AM 30.2 °F - 24.8 °F 80% 30.05 in 2.5 mi Calm Calm - 0.00 in Snow Light Snow
5:53 AM 30.0 °F 26.5 °F 26.1 °F 85% 30.09 in 2.5 mi WNW 3.5 mph - 0.00 in Snow Light Snow
6:01 AM 28.4 °F - 24.8 °F 86% 30.03 in 5.0 mi Calm Calm - 0.00 in Snow Light Snow
6:53 AM 28.9 °F - 26.1 °F 89% 30.06 in 8.0 mi Calm Calm - 0.00 in   Overcast
7:18 AM 28.4 °F 24.6 °F 26.6 °F 93% 30.02 in 2.5 mi NW 3.5 mph - 0.00 in Snow Light Snow
7:27 AM 28.4 °F 23.3 °F 26.6 °F 93% 30.02 in 1.2 mi Variable 4.6 mph - 0.00 in Snow Light Snow
7:38 AM 28.4 °F 24.6 °F 24.8 °F 86% 30.02 in 0.5 mi WNW 3.5 mph - 0.01 in Fog , Snow Light Snow
7:50 AM 28.4 °F 24.6 °F 26.6 °F 93% 30.02 in 0.2 mi WNW 3.5 mph - 0.02 in Fog , Snow Light Snow
7:53 AM 28.0 °F 24.2 °F 26.1 °F 92% 30.06 in 0.5 mi NW 3.5 mph - 0.02 in Fog , Snow Light Snow
7:59 AM 28.4 °F - 26.6 °F 93% 30.03 in 1.0 mi Calm Calm - 0.00 in Snow Light Snow
8:14 AM 28.4 °F 23.3 °F 26.6 °F 93% 30.01 in 0.8 mi North 4.6 mph - 0.01 in Snow Light Snow
8:22 AM 28.4 °F - 26.6 °F 93% 30.03 in 1.5 mi Calm Calm - 0.01 in Snow Light Snow
8:27 AM 28.4 °F - 26.6 °F 93% 30.04 in 2.0 mi Calm Calm - 0.01 in Snow Light Snow
8:35 AM 28.4 °F 24.6 °F 26.6 °F 93% 30.03 in 3.0 mi NW 3.5 mph - 0.01 in   Overcast
8:53 AM 28.0 °F - 25.0 °F 88% 30.08 in 7.0 mi Calm Calm - 0.01 in   Overcast
9:53 AM 28.0 °F 24.2 °F 23.0 °F 81% 30.09 in 10.0 mi NW 3.5 mph - N/A   Overcast
10:15 AM 28.4 °F 23.3 °F 21.2 °F 74% 30.07 in 1.8 mi NW 4.6 mph - 0.00 in Snow Light Snow
10:26 AM 28.4 °F 22.2 °F 24.8 °F 86% 30.07 in 0.8 mi WNW 5.8 mph - 0.00 in Snow Light Snow
10:43 AM 26.6 °F 22.6 °F 23.0 °F 86% 30.08 in 0.8 mi Variable 3.5 mph - 0.00 in Snow Light Snow
10:53 AM 27.0 °F 19.5 °F 23.0 °F 85% 30.12 in 1.0 mi WNW 6.9 mph - 0.01 in Snow Light Snow
11:04 AM 26.6 °F 18.2 °F 23.0 °F 86% 30.08 in 0.8 mi WNW 8.1 mph - 0.00 in Snow Light Snow
11:13 AM 26.6 °F 20.0 °F 23.0 °F 86% 30.08 in 1.5 mi WNW 5.8 mph - 0.00 in Snow Light Snow
11:40 AM 26.6 °F 20.0 °F 23.0 °F 86% 30.07 in 2.0 mi West 5.8 mph - 0.00 in Snow Light Snow
11:53 AM 27.0 °F 20.5 °F 21.9 °F 81% 30.12 in 3.0 mi WNW 5.8 mph - 0.00 in   Haze
12:16 PM 28.4 °F 23.3 °F 24.8 °F 86% 30.07 in 2.5 mi SW 4.6 mph - 0.00 in Snow Light Snow
12:21 PM 26.6 °F 20.0 °F 23.0 °F 86% 30.07 in 3.0 mi WSW 5.8 mph - 0.00 in Snow Light Snow
12:53 PM 28.0 °F 21.7 °F 21.0 °F 75% 30.11 in 10.0 mi Variable 5.8 mph - 0.00 in Snow Light Snow
1:16 PM 28.4 °F 23.3 °F 21.2 °F 74% 30.06 in 1.8 mi WSW 4.6 mph - 0.00 in Snow Light Snow
1:26 PM 28.4 °F 22.2 °F 21.2 °F 74% 30.06 in 3.0 mi Variable 5.8 mph - 0.00 in Snow Light Snow
1:53 PM 28.0 °F 20.8 °F 21.0 °F 75% 30.12 in 10.0 mi WSW 6.9 mph - 0.00 in   Overcast
2:25 PM 28.4 °F 19.1 °F 19.4 °F 69% 30.08 in 10.0 mi WSW 10.4 mph 17.3 mph N/A   Mostly Cloudy
2:53 PM 28.0 °F 19.3 °F 18.0 °F 66% 30.13 in 10.0 mi WSW 9.2 mph 21.9 mph N/A   Scattered Clouds
3:53 PM 28.9 °F 20.4 °F 17.1 °F 61% 30.13 in 10.0 mi WSW 9.2 mph 19.6 mph N/A   Partly Cloudy
4:53 PM 28.0 °F 17.5 °F 15.1 °F 58% 30.15 in 10.0 mi SW 12.7 mph 20.7 mph N/A   Clear
5:53 PM 28.0 °F 20.0 °F 16.0 °F 61% 30.15 in 10.0 mi SW 8.1 mph - N/A   Clear
6:53 PM 27.0 °F 20.5 °F 17.1 °F 66% 30.18 in 10.0 mi SSW 5.8 mph - N/A   Clear
7:53 PM 27.0 °F 18.0 °F 17.1 °F 66% 30.23 in 10.0 mi SW 9.2 mph - N/A   Clear
8:53 PM 27.0 °F 20.5 °F 15.1 °F 61% 30.26 in 10.0 mi WSW 5.8 mph - N/A   Partly Cloudy
9:53 PM 27.0 °F 23.0 °F 14.0 °F 58% 30.28 in 10.0 mi Variable 3.5 mph - N/A   Scattered Clouds
10:53 PM 26.1 °F 21.9 °F 12.9 °F 58% 30.29 in 10.0 mi Variable 3.5 mph - N/A   Partly Cloudy
11:53 PM 26.1 °F 20.5 °F 14.0 °F 60% 30.31 in 10.0 mi Variable 4.6 mph - N/A   Mostly Cloudy